Retour au catalogue

USA 522

ActifMilitaireLEO
NORAD 63597·PAYLOAD·🇺🇸 United States

Lancé Apr 16, 2025 depuis Vandenberg Space Force Base

Loading…

Prochains Passages (prochaines 24 heures)

TLE

PériméSource: Mike McCants

Époque: Nov 13, 2025, 04:44 UTC

1 63597U 25077B   25317.19739246 0.00000000  00000-0  00000-0 0    03
2 63597  63.3855  42.8714 0020000 291.6239  68.3761 13.39285860    08

Suivez USA 522 en temps réel avec AllMySat

Download on the App Store